{"data":{"norad_id":47874,"epoch":"2026-09-20T01:25:52.807872Z","epoch_age_seconds":67196,"freshness":"FRESH","line1":"1 47874U 21021Q   26263.05963898  .00051342  00000+0  10260-2 0  9998","line2":"2 47874  53.1406  23.4000 0001991  31.0546 329.0579 15.46326226306864","mean_motion":15.46326226,"eccentricity":0.0001991,"inclination_deg":53.1406,"raan_deg":23.4,"arg_perigee_deg":31.0546,"mean_anomaly_deg":329.0579,"bstar":0.001026,"rev_number":30686,"period_min":93.12394602043,"perigee_km":426.1290058043,"apogee_km":428.83900408847,"semimajor_km":6805.6210049464,"source":"CELESTRAK","updated_at":"2026-09-20T09:00:38.755601Z"}}